This demonstration page uses our WeatherBlox Daily Observations layout. Learn more.

Hourly Observations for August 26, 2019

Temp ( °F °C ) Dew Point ( °F °C ) Humidity (%) Winds ( mph kmh ) Pressure ( in mb ) Visibility ( mi km ) Precip ( " mm )
12:15 am 00:15 Cloudy 68 20 67 19.3 96 96 SE 13 20 29.71 1006 10 16.09344 0 0
12:35 am 00:35 Cloudy 68 20.1 67 19.2 95 95 SE 13 20 29.71 1006 10 16.09344 0 0
12:55 am 00:55 Cloudy 68 20.2 67 19.2 94 94 SE 13 20 29.71 1006 10 16.09344 0 0
1:15 am 01:15 Cloudy 68 20.1 67 19.3 95 95 SE 13 20 29.71 1006 10 16.09344 0 0
1:35 am 01:35 Cloudy 68 20.1 67 19.4 96 96 SE 14 22 29.71 1006 10 16.09344 0 0
1:55 am 01:55 Cloudy 68 20.1 67 19.5 96 96 SSE 10 17 29.71 1006 10 16.09344 0 0
2:15 am 02:15 Cloudy 68 20.1 67 19.5 96 96 SSE 13 20 29.71 1006 10 16.09344 0 0
2:35 am 02:35 Cloudy 68 20.2 67 19.6 96 96 SSE 13 20 29.68 1005 10 16.09344 0 0
2:55 am 02:55 Cloudy 69 20.3 67 19.7 96 96 SSE 13 20 29.68 1005 10 16.09344 0 0
3:15 am 03:15 Cloudy 69 20.5 68 20 97 97 SSE 10 17 29.68 1005 10 16.09344 0 0
3:35 am 03:35 Cloudy 69 20.3 68 20 98 98 SSE 12 19 29.68 1005 10 16.09344 0 0
3:55 am 03:55 Cloudy 69 20.3 68 20 98 98 SSE 10 17 29.65 1004 10 16.09344 0 0
4:15 am 04:15 Cloudy with Nearby Thunderstorms 69 20.3 68 20 98 98 SSE 12 19 29.65 1004 10 16.09344 0 0
4:35 am 04:35 Cloudy with Light Rain 69 20.5 68 20.2 98 98 SSE 16 26 29.59 1002 10 16.09344 0 0
4:55 am 04:55 Cloudy 69 20.3 69 20.3 100 100 SE 13 20 29.65 1004 7 11.265408 0 0
5:15 am 05:15 Cloudy with Nearby Thunderstorms 69 20.3 69 20.3 100 100 N 7 11 29.71 1006 5 8.04672 0 0
5:35 am 05:35 Cloudy with Thunderstorms 68 20.1 68 20.1 100 100 SSE 13 20 29.65 1004 2.5 4.02336 0.03 0.762
5:55 am 05:55 Cloudy with Light Drizzle 68 20.2 68 20.2 100 100 SE 13 20 29.65 1004 3 4.828032 0.04 1.016
6:15 am 06:15 Cloudy with Mist and Fog 69 20.3 69 20.3 100 100 Calm 29.68 1005 3 4.828032 0 0
6:35 am 06:35 Cloudy with Mist and Fog 69 20.4 69 20.4 100 100 Calm 29.71 1006 4 6.437376 0 0
6:55 am 06:55 Cloudy with Drizzle 69 20.5 69 20.5 100 100 Calm 29.71 1006 3 4.828032 0.01 0.254
7:15 am 07:15 Cloudy with Mist and Fog 69 20.3 69 20.3 100 100 N 8 13 29.71 1006 3 4.828032 0 0
7:35 am 07:35 Cloudy with Drizzle 67 19.6 67 19.6 100 100 NNE 10 17 29.71 1006 5 8.04672 0.01 0.254
7:55 am 07:55 Cloudy 67 19.5 67 19.5 100 100 NNE 7 11 29.71 1006 7 11.265408 0.01 0.254
8:15 am 08:15 Cloudy with Light Rain 67 19.5 67 19.5 100 100 ENE 6 9 29.71 1006 10 16.09344 0 0
8:35 am 08:35 Cloudy 68 20 68 20 100 100 N 8 13 29.71 1006 10 16.09344 0 0
8:55 am 08:55 Cloudy 67 19.7 67 19.5 99 99 NNE 9 15 29.71 1006 10 16.09344 0 0
9:15 am 09:15 Cloudy 68 19.9 67 19.5 98 98 NNE 9 15 29.71 1006 10 16.09344 0 0
9:35 am 09:35 Cloudy 68 20.1 68 19.8 98 98 N 9 15 29.71 1006 10 16.09344 0 0
9:55 am 09:55 Cloudy 69 20.5 67 19.7 95 95 N 8 13 29.74 1007 10 16.09344 0 0
10:15 am 10:15 Cloudy 68 20.2 67 19.4 95 95 N 14 22 29.74 1007 10 16.09344 0 0
10:35 am 10:35 Mostly Cloudy 69 20.8 66 19 90 90 N 13 20 29.77 1008 10 16.09344 0 0
10:55 am 10:55 Mostly Cloudy 70 21.1 66 19 88 88 N 14 22 29.77 1008 10 16.09344 0 0
11:15 am 11:15 Mostly Cloudy 71 21.9 66 19 84 84 N 15 24 29.74 1007 10 16.09344 0 0
11:35 am 11:35 Cloudy 72 22.4 66 18.9 81 81 N 16 26 29.77 1008 10 16.09344 0 0
11:55 am 11:55 Cloudy 71 21.4 65 18.3 83 83 N 15 24 29.8 1009 10 16.09344 0 0
12:15 pm 12:15 Cloudy 71 21.8 65 18.4 81 81 N 13 20 29.8 1009 10 16.09344 0 0
12:35 pm 12:35 Partly Cloudy 72 22.4 65 18.1 77 77 NNW 13 20 29.77 1008 10 16.09344 0 0
12:55 pm 12:55 Partly Cloudy 73 22.5 65 18.3 77 77 NNW 17 28 29.77 1008 10 16.09344 0 0
1:15 pm 13:15 Mostly Cloudy 73 22.6 65 18.5 78 78 N 13 20 29.8 1009 10 16.09344 0 0
1:35 pm 13:35 Partly Cloudy 73 22.5 64 18 76 76 N 16 26 29.8 1009 10 16.09344 0 0
1:55 pm 13:55 Partly Cloudy 73 23 65 18.2 74 74 N 14 22 29.8 1009 10 16.09344 0 0
2:15 pm 14:15 Mostly Cloudy 73 23 64 17.9 73 73 N 15 24 29.8 1009 10 16.09344 0 0
2:35 pm 14:35 Mostly Cloudy 74 23.6 64 17.9 70 70 N 12 19 29.8 1009 10 16.09344 0 0
2:55 pm 14:55 Mostly Cloudy 74 23.6 64 17.5 69 69 N 15 24 29.8 1009 10 16.09344 0 0
3:15 pm 15:15 Partly Cloudy 76 24.3 64 17.6 66 66 N 14 22 29.8 1009 10 16.09344 0 0
3:35 pm 15:35 Partly Cloudy 76 24.6 63 17.4 64 64 N 15 24 29.8 1009 10 16.09344 0 0
3:55 pm 15:55 Partly Cloudy 76 24.5 62 16.9 63 63 N 14 22 29.8 1009 10 16.09344 0 0
4:15 pm 16:15 Partly Cloudy 76 24.6 61 16.2 60 60 N 15 24 29.8 1009 10 16.09344 0 0
4:35 pm 16:35 Partly Cloudy 76 24.5 62 16.7 62 62 N 10 17 29.8 1009 10 16.09344 0 0
4:55 pm 16:55 Partly Cloudy 76 24.7 62 16.7 61 61 N 13 20 29.8 1009 10 16.09344 0 0
5:15 pm 17:15 Sunny 76 24.6 62 16.5 61 61 N 9 15 29.8 1009 10 16.09344 0 0
5:35 pm 17:35 Sunny 76 24.5 61 15.9 59 59 N 14 22 29.8 1009 10 16.09344 0 0
5:55 pm 17:55 Partly Cloudy 76 24.5 61 16.3 60 60 N 9 15 29.8 1009 10 16.09344 0 0
6:15 pm 18:15 Partly Cloudy 75 24 60 15.8 60 60 N 8 13 29.83 1010 10 16.09344 0 0
6:35 pm 18:35 Sunny 75 23.7 61 15.9 62 62 N 8 13 29.83 1010 10 16.09344 0 0
6:55 pm 18:55 Sunny 74 23.1 60 15.4 62 62 N 9 15 29.83 1010 10 16.09344 0 0
7:15 pm 19:15 Sunny 72 22.4 60 15.5 65 65 N 7 11 29.85 1011 10 16.09344 0 0
7:35 pm 19:35 Sunny 71 21.5 61 15.9 71 71 N 7 11 29.85 1011 10 16.09344 0 0
7:55 pm 19:55 Sunny 69 20.4 61 16.1 76 76 N 6 9 29.88 1012 10 16.09344 0 0
8:15 pm 20:15 Sunny 67 19.3 61 16.1 82 82 N 6 9 29.88 1012 10 16.09344 0 0
8:35 pm 20:35 Clear 66 18.7 61 16 84 84 N 3 6 29.91 1013 10 16.09344 0 0
8:55 pm 20:55 Clear 65 18.2 61 16.2 88 88 Calm 29.91 1013 7 11.265408 0 0
9:15 pm 21:15 Clear 65 18.5 61 16 85 85 Calm 29.94 1014 10 16.09344 0 0
9:35 pm 21:35 Clear 63 17.2 61 16.1 93 93 Calm 29.94 1014 10 16.09344 0 0
9:55 pm 21:55 Clear 62 16.5 61 16.1 98 98 NW 3 6 29.97 1015 10 16.09344 0 0
10:15 pm 22:15 Clear 63 17.1 61 16 93 93 NW 5 7 29.97 1015 10 16.09344 0 0
10:35 pm 22:35 Clear 63 17.2 60 15.3 89 89 NNW 3 6 29.97 1015 10 16.09344 0 0
10:55 pm 22:55 Clear 62 16.6 59 15 90 90 NNW 5 7 29.97 1015 10 16.09344 0 0
11:15 pm 23:15 Clear 62 16.5 59 14.9 90 90 WNW 3 6 29.97 1015 10 16.09344 0 0
11:35 pm 23:35 Clear 60 15.7 59 14.9 95 95 W 3 6 30 1016 10 16.09344 0 0
11:55 pm 23:55 Clear 60 15.5 58 14.6 94 94 W 5 7 30 1016 10 16.09344 0 0

Powered by AerisWeather